星链-1758 (STARLINK-1758 )

导读 | 豆包AI

STARLINK-1758是美国太空探索技术公司(SpaceX)星链计划中的卫星,于2020年9月3日发射升空。星链计划旨在构建全球卫星互联网星座,该卫星入轨后为星座提供补充,服务全球范围的高速互联网接入,推进全球网络覆盖,尤其对偏远地区网络连通性提升有重要意义。

基本信息
目录编号:
46380
目录名称:
STARLINK-1758
国际标识:
2020-062BH
轨道中心:
EARTH
卫星名称:
星链-1758
卫星全名:
星链-1758 (STARLINK-1758 )
卫星状态:
已陨落 最后检测时间 2025-02-09
发射日期:
2020-09-03 UTC
国别 :
美国 (US)
星等 :
--
轨道信息
数据来源 国际轨道数据
星历时间: 2025-02-09T20:42:42+0800
轨道信息已过期418天
半长轴: 6538.16km
偏心率: 0.0007011
轨道倾角: 53.026°
近地点辐角 242.165°
升交点赤经 288.259°
平近点角 258.705°
近地点: 155.441km
远地点: 164.609km
周期: 87.689分钟
每日圈数: 16.421751
详细信息
固有亮度:
5
最大亮度:
2.5
卫星平台:
Starlink V1.0
覆盖范围:
全球
运营商:
太空探索技术公司
运营商所在国:
美国
制造商(研发单位):
太空探索技术公司
制造商所在国:
美国
使用方式:
暂无
卫星简介
星链(Starlink)计划是由太空探索技术公司(SpaceX)提出的一个巨型低轨卫星互联网星座项目,计划在2019年至2024年间在太空搭建由约1.2万颗卫星组成的“星链”网络,其中1584颗将部署在地球上空550千米处的近地轨道,并从2020年开始工作。该卫星仍在工作。